Regional Weather Roundup
Issued by NWS Glasgow, MT

Home | Current Version | Previous Version | Text Only | Print | Product List | Glossary On
Versions: 1 2 3 4 5 6 7 8 9 10 11 12 13 14 15 16 17 18 19 20 21 22 23 24 25 26 27 28 29 30 31 32 33 34 35 36 37 38 39 40 41 42 43 44 45 46 47 48 49 50
000
ASUS45 KGGW 011915
RWRGGW
HOURLY WEATHER ROUNDUP FOR NORTHEAST MONTANA
NATIONAL WEATHER SERVICE GLASGOW MONTANA
1200 PM MST SUN MAR 01 2015

NOTE: "FAIR" INDICATES FEW OR NO CLOUDS BELOW 12,000 FEET WITH NO
SIGNIFICANT WEATHER AND/OR OBSTRUCTIONS TO VISISBILITY.

NORTHEAST MONTANA


CITY           SKY/WX    TMP DP  RH WIND       PRES   REMARKS
GLASGOW        SUNNY     24  11  57 CALM      30.31S
PLENTYWOOD       N/A     22  14  71 NW12        N/A
WOLF POINT     CLOUDY    27  12  53 W6        30.32S
JORDAN         NOT AVBL
WINNETT          N/A     28  10  46 SW8G16      N/A
SIDNEY         MOSUNNY   25  10  54 W9        30.34S
GLENDIVE       CLOUDY    21  12  68 NW15      30.32R
MALTA            N/A     29  18  63 W8          N/A
SCOBEY           N/A     23   6  48 NW10G16   30.23S

FORT PECK REPORTS


CITY           SKY/WX    TMP DP  RH WIND       PRES   REMARKS
FORT PECK        N/A     26  17  68 SW9         N/A
THE PINES        N/A     29  13  51 NW6G16      N/A

SOUTHEAST MONTANA


CITY           SKY/WX    TMP DP  RH WIND       PRES   REMARKS
BILLINGS       NOT AVBL
MILES CITY     CLOUDY    25  11  55 NW14      30.33R
BAKER          NOT AVBL
LIVINGSTON     SUNNY     27   4  37 W10       30.20F

CENTRAL MONTANA


CITY           SKY/WX    TMP DP  RH WIND       PRES   REMARKS
HAVRE          SUNNY     32  15  49 SW14      30.24F
LEWISTOWN      SUNNY     24   7  48 S9        30.21F
GREAT FALLS    SUNNY     31  12  45 S15       30.17F
CUT BANK       SUNNY     32  12  43 S9        30.11F
HELENA           N/A     25   8  48 E10       30.24F
BUTTE          SUNNY     24   5  44 CALM      30.14F
BOZEMAN        SUNNY     24   4  42 CALM      30.23F

WESTERN MONTANA


CITY           SKY/WX    TMP DP  RH WIND       PRES   REMARKS
MISSOULA       SUNNY     28   7  41 S5        30.25F
KALISPELL      NOT AVBL

NORTH DAKOTA


CITY           SKY/WX    TMP DP  RH WIND       PRES   REMARKS
WILLISTON      NOT AVBL
DICKINSON      CLOUDY    24  11  57 NW16      30.24R
MINOT          CLOUDY    19   9  65 W16       30.26R
BISMARCK       NOT AVBL

SOUTHERN SASKATCHEWAN


CITY           SKY/WX    TMP DP  RH WIND       PRES   REMARKS
REGINA         PTSUNNY   12  10  92 W10       30.27R WCI  -1
MOOSE JAW      MOSUNNY   18  14  86 W18       30.28R
ESTEVAN        MOSUNNY   16  10  79 W15       30.27S
SWIFT CURRENT  SUNNY     18  16  93 SW10      30.22F




USA.gov is the U.S. government's official web portal to all federal, state and local government web resources and services.